Вернуться в каталог

METEOR 3-4

АктивенПогодаPO
NORAD 21232·PAYLOAD·🇷🇺 Russia

Запущен Apr 24, 1991 с Plesetsk Cosmodrome

Loading…

Ближайшие Пролёты (ближайшие 24 часа)

TLE

СвежийSource: Space-Track

Эпоха: Sep 14, 2026, 14:27 UTC

1 21232U 91030A   26257.60233192  .00000051  00000-0  10067-3 0  9994
2 21232  82.5411 121.0983 0012060 298.4466  89.0958 13.16703655700873

Отслеживайте METEOR 3-4 в реальном времени с AllMySat

Download on the App Store